Weather in Épinal

France     48°10′33″N   6°27′12″E
temp.,
°C
wind,
m/s
gust,
m/s
humid.,
%
clouds,
%
prec.,
mm/h
press.,
hPa
HPBL,
m
25 july, sun
sun2523:00+16ssw229833 0.3 101225
02:00+15s22986 0.6 101251
05:00+14s24988 0.0 101168
08:00+16ssw24966 0.0 1011188
11:00+19ssw35860 2.0 1010706
14:00+23sw57491 2.4 10101822
17:00+23sw475758 0.1 10101612
20:00+18ssw279177 1.1 1010311
26 july, mon
mon2623:00+15s2396100 0.0 101254
02:00+14s249652 0.0 101265
05:00+14s239675 0.0 101267
08:00+16ssw249119 0.0 1013166
11:00+21sw3465100 0.0 10141026
14:00+22wsw456391 0.4 10131453
17:00+21wsw456744 1.0 10141228
20:00+18wsw258560 1.5 1014273
27 july, tue
tue2723:00+14s22970 0.2 101648
02:00+14s23975 0.2 101658
05:00+13s2497100 0.0 101571
08:00+16s2492100 0.0 1015141
11:00+20sw3574100 0.4 1015613
14:00+22wsw4665100 0.9 10141106
17:00+18sw3790100 1.8 1015444
20:00+16s2692100 2.6 1015137
28 july, wed
wed2823:00+15s4109594 0.0 1017376
02:00+14s389592 0.0 1015286
05:00+14s3996100 0.2 1015452
08:00+15ssw3895100 0.2 1016487
11:00+18sw477430 0.0 1016792
14:00+22sw466065 0.1 10151465
17:00+23wsw465925 0.1 10151482
20:00+20w24817 0.2 1015113
29 july, thu
thu2923:00+15s11941 0.0 101611
02:00+14sse119589 0.0 101611
05:00+16se119191 0.0 101523
08:00+18s128524 0.0 101484
11:00+19sw238087 0.0 1014356
14:00+23wsw346355 0.0 10121137
17:00+23w356860 0.1 1011918
20:00+20nw258981 0.4 1011184